Showing default

COSMOS 1562, 15001

Orbit data source: Space-Track

COSMOS 1562, 15001 is a payload satellite owned by GUKOS (CIS) in LEO that was launched on Mon, 28 May 1984 UTC via a KOSMOS 11K65M launch vehicle from the Plesetsk Missile And Space Complex (PKMTR). Payload-class satellites include a variety of spacecraft equipped with specific instruments for various scientific and technological missions. These include communications satellites like Starlink; space stations such as the ISS; scientific satellites like the Hubble; Earth observation satellites from companies like Planet Labs, Umbra, and HawkEye 360; GPS; miniature CubeSats for education and research; and military/defense satellites.

Loading next visibility...
Identifier
15001, 1984-052D
Orbit
LEO
Country
Flag of CISCIS
Related business
Manufacturer
NPO PM
Mission
Spacecraft
Bus & Motor
STRELA-1 11F625, Unknown motor
Mass
60 kg wet, 60 kg dry
Launch date (UTC)
1984-05-28 (42 years ago)
Launch vehicle
KOSMOS 11K65M
Launch site
Plesetsk Missile And Space Complex (PKMTR)
Object type
Payload
Rocket body
Debris
Shape & HBR
Unknown
Radar Cross Section
Medium (>0.1 m² and <1 m²)

Expand to show TLE details & history
Last TLE update: 18 hours ago

TLE from 18 hours ago
0 COSMOS 1562
1 15001U 84052D   26036.63240332  .00000010  00000-0  17173-3 0  9999
2 15001  74.0128 131.1975 0015668 317.9617 154.4160 12.49963529902347
Epoch: 2026-02-05T15:10Z
TLE epoch observation values (Epoch: 2026-02-05T15:10:39.646Z)
Latitude
62.77047°
Longitude
-85.89435°
Altitude
1,486.142 km
Speed
7.121 km/s
True Right ascension
18h 30m 12s
True Declination
62° 38' 36"
Sunlit
Object was in daylight at epoch
Visualization orbit readout
Latitude
Unknown
Longitude
Unknown
Altitude
Unknown
Speed
Unknown
Apparent Right ascension
Unknown
Apparent Declination
Unknown
Sunlit
N/A
Visualization observer readout
Local Sidereal Time
11:06:55
Azimuth
Unknown
Elevation
Unknown
Doppler factor
Unknown
Orbital elements
Apogee altitude
1,474.769 km
Perigee altitude
1,450.199 km
Semi-major axis
7,840.621 km
Eccentricity
0.00157
Inclination
74.0128°
RAAN
131.1975°
Arg. of periapsis
317.9617°
True anomaly
154.4934°
Mean anomaly
154.416°
Eccentric anomaly
154.45471°
Mean motion
3.12621 °/min
Orbital period
115.16 mins
BSTAR
0.00017173
Loading maneuver chart data...
Computing Atmospheric mass density...
Loading historical data...
Loading historical data...
Loading historical data...
Loading historical data...
Loading historical data...
Loading historical data...
Loading historical data...

Documentation

Showing up to 5 results
|